FW2451 Weather Reports


Display with metric or nautical units.
time (UTC)temp
F
wind
direction
speed
MPH
gust
MPH
rain 1hr
in
rain 24hr
in
rain mn
in
humidity
%
barometer
mb
20260505221525 62 28 1.0 4.0 0.00 0.00 0.00 70 1017.2
20260505220026 62 74 0.0 3.0 0.00 0.00 0.00 71 1017.3
20260505214521 61 40 1.0 3.0 0.00 0.00 0.00 73 1017.3
20260505213024 60 84 0.0 3.0 0.00 0.00 0.00 73 1017.5
20260505211521 61 74 0.0 3.0 0.00 0.00 0.00 72 1017.6
20260505210018 61 78 0.0 3.0 0.00 0.00 0.00 71 1017.4
20260505204516 61 273 0.0 3.0 0.00 0.00 0.00 70 1017.4
20260505203025 61 169 0.0 4.0 0.00 0.00 0.00 70 1017.5
20260505201517 61 66 1.0 3.0 0.00 0.00 0.00 69 1017.5
20260505200012 61 148 0.0 3.0 0.00 0.00 0.00 70 1017.7
20260505194511 61 238 0.0 4.0 0.00 0.00 0.00 69 1017.9
20260505193006 61 221 0.0 3.0 0.00 0.00 0.00 71 1017.9
20260505191504 60 78 0.0 3.0 0.00 0.00 0.00 71 1017.9
20260505190003 60 35 1.0 5.0 0.00 0.00 0.00 73 1017.8
20260505184603 59 66 0.0 4.0 0.00 0.00 0.00 73 1017.7
20260505183113 58 47 1.0 5.0 0.00 0.00 0.00 73 1017.8
20260505181551 58 360 0.0 8.0 0.00 0.00 0.00 73 1017.7
20260505180048 58 26 2.0 6.0 0.00 0.00 0.00 72 1017.6
20260505174546 58 88 0.0 2.0 0.00 0.00 0.00 72 1017.5
20260505173048 57 105 0.0 3.0 0.00 0.00 0.00 73 1017.3
20260505171545 57 113 0.0 3.0 0.00 0.00 0.00 74 1017.3
20260505170038 57 111 0.0 3.0 0.00 0.00 0.00 73 1017.3
20260505164536 57 111 1.0 2.0 0.00 0.00 0.00 74 1017.2
20260505163032 56 107 0.0 2.0 0.00 0.00 0.00 74 1017.1
20260505161531 56 107 0.0 2.0 0.00 0.00 0.00 75 1017.2
20260505153055 55 105 0.0 2.0 0.00 0.00 0.00 77 1016.9
20260505151609 55 105 0.0 2.0 0.00 0.00 0.00 78 1017.0
20260505124532 53 24 0.0 2.0 0.00 0.00 0.00 77 1016.1
20260505123032 53 25 0.0 0.0 0.00 0.00 0.00 78 1016.2
20260505121536 53 24 0.0 0.0 0.00 0.00 0.00 77 1016.1
20260505120059 54 24 0.0 3.0 0.00 0.00 0.00 77 1016.3
20260505114538 54 25 0.0 3.0 0.00 0.00 0.00 77 1016.4
20260505113043 54 26 0.0 3.0 0.00 0.00 0.00 76 1016.5
20260505111536 54 26 0.0 1.0 0.00 0.00 0.00 76 1016.3
20260505101529 54 51 1.0 4.0 0.00 0.00 0.00 74 1016.4
20260505100028 54 19 1.0 5.0 0.00 0.00 0.00 74 1016.5
20260505094524 54 308 0.0 4.0 0.00 0.00 0.00 73 1016.5
20260505093024 54 326 0.0 5.0 0.00 0.00 0.00 72 1016.7
20260505091528 54 342 1.0 7.0 0.00 0.00 0.00 72 1016.6
20260505090037 55 344 2.0 7.0 0.00 0.00 0.00 71 1016.9
20260505084521 55 355 1.0 5.0 0.00 0.00 0.00 71 1016.8
20260505083020 55 27 4.0 10.0 0.00 0.00 0.00 72 1017.2
20260505081520 55 28 3.0 10.0 0.00 0.00 0.00 72 1017.1
20260505080017 55 310 2.0 9.0 0.00 0.00 0.00 73 1017.2
20260505074517 55 50 2.0 7.0 0.00 0.00 0.00 75 1017.2
20260505073029 55 21 3.0 6.0 0.00 0.00 0.00 78 1017.1
20260505071519 55 360 2.0 6.0 0.00 0.00 0.00 79 1017.1
20260505070015 56 26 1.0 4.0 0.00 0.00 0.00 79 1016.9
20260505064531 56 19 1.0 3.0 0.00 0.00 0.00 80 1016.8
20260505063013 56 15 0.0 4.0 0.00 0.00 0.00 79 1016.9
20260505061527 56 310 2.0 7.0 0.00 0.00 0.00 78 1016.6
20260505060111 56 330 1.0 7.0 0.00 0.00 0.00 77 1016.7
20260505054559 57 319 1.0 9.0 0.00 0.00 0.00 77 1016.9
20260505053048 57 311 1.0 5.0 0.00 0.00 0.00 76 1017.0
20260505051537 57 285 2.0 8.0 0.00 0.00 0.00 75 1017.2
20260505041530 58 338 2.0 9.0 0.00 0.00 0.00 73 1016.8
20260505040030 59 19 3.0 10.0 0.00 0.00 0.00 71 1016.5
20260505034529 59 355 1.0 6.0 0.00 0.00 0.00 68 1016.3
20260505033029 59 254 2.0 5.0 0.00 0.00 0.00 68 1016.0
20260505031540 60 34 2.0 6.0 0.00 0.00 0.00 69 1015.9
20260505030026 60 23 2.0 8.0 0.00 0.00 0.00 69 1015.8
20260505024534 60 355 4.0 10.0 0.00 0.00 0.00 69 1015.9
20260505023028 60 20 3.0 14.0 0.00 0.00 0.00 67 1015.8
20260505021526 61 22 5.0 11.0 0.00 0.00 0.00 67 1015.6
20260505020030 61 15 2.0 10.0 0.00 0.00 0.00 66 1015.7
20260505014528 62 96 2.0 11.0 0.00 0.00 0.00 64 1015.7
20260505013024 62 355 3.0 10.0 0.00 0.00 0.00 62 1015.6
20260505011552 63 291 5.0 10.0 0.00 0.00 0.00 62 1015.8
20260505010050 64 328 4.0 9.0 0.00 0.00 0.00 62 1015.8
20260505004555 62 336 6.0 11.0 0.00 0.00 0.00 63 1016.0
20260505003048 62 61 5.0 10.0 0.00 0.00 0.00 64 1016.0
20260505001551 63 329 3.0 9.0 0.00 0.00 0.00 64 1015.9
20260505000105 62 347 4.0 9.0 0.00 0.00 0.00 65 1016.0
20260504234545 62 306 3.0 8.0 0.00 0.00 0.00 67 1015.8
20260504233044 62 63 4.0 11.0 0.00 0.00 0.00 63 1016.0
20260504231545 63 344 4.0 10.0 0.00 0.00 0.00 62 1015.9
20260504230100 64 304 2.0 8.0 0.00 0.00 0.00 61 1015.9
20260504224538 65 40 4.0 9.0 0.00 0.00 0.00 61 1015.9
20260504223036 66 267 0.0 4.0 0.00 0.00 0.00 58 1016.0